Weather in Iriklinskiy

Russia / Orenburg Oblast     51°40′24″N   58°38′31″E
temp.,
°C
wind,
m/s
gust,
m/s
humid.,
%
clouds,
%
prec.,
mm/h
press.,
hPa
HPBL,
m
14 august, sun
sun1423:00+21nne495419 0.0 1016193
02:00+19nne4106287 0.0 1017216
05:00+17nne487254 0.0 1017192
08:00+20ne57641 0.0 1018335
11:00+24ene55420 0.0 10171088
14:00+27ne55342 0.0 10171751
17:00+27ne5531100 0.0 10161991
20:00+23e593969 0.0 1017300
15 august, mon
mon1523:00+20e612444 0.0 1017367
02:00+17e410455 0.0 1019340
05:00+15ene410539 0.0 1020277
08:00+17e59470 0.0 1021450
11:00+22e67320 0.0 10211228
14:00+24ene66270 0.0 10211754
17:00+25ene55260 0.0 10201950
20:00+21ene35350 0.0 102072
16 august, tue
tue1623:00+18ese33400 0.0 102132
02:00+16ene22450 0.0 102117
05:00+15ne22510 0.0 102311
08:00+17ne23460 0.0 1024178
11:00+23ene33320 0.0 10231156
14:00+25ne33280 0.0 10222249
17:00+26nne33270 0.0 10212413
20:00+23ne22360 0.0 102221
17 august, wed
wed1723:00+19e36460 0.0 102296
02:00+17e22480 0.0 102317
05:00+16nne22550 0.0 102412
08:00+18ne22475 0.0 1024169
11:00+23e113537 0.0 1023944
14:00+27nw342872 0.0 10212264
17:00+27nne2526100 0.0 10202527
20:00+24e3435100 0.0 101958
18 august, thu
thu1823:00+21ene1140100 0.0 101911
02:00+19e11455 0.0 101911
05:00+17nne225311 0.0 101919
08:00+19n33505 0.0 1019199
11:00+24nne34363 0.0 1018858
14:00+27nnw34270 0.0 10172179
17:00+28nnw36252 0.0 10152837
20:00+25nne593967 0.0 1015405